Location: Unspecified
(0.0000°N, 0.0000°E)
Time: 02:04:43
(UTC+00:00)

MAROC-TUBSAT - Visible Passes

Search period start: 16 May 2026 00:00
Search period end: 26 May 2026 00:00
Orbit: 984 x 1013 km, 99.8° (Epoch: 15 May)

Date Brightness Start Highest point End Pass type
(mag) Time Alt. Az. Time Alt. Az. Time Alt. Az.
16 May 8.6 05:20:59 10° S 05:27:11 67° WSW 05:33:25 10° NNW visible
16 May 11.9 18:32:06 10° NW 18:34:33 12° WNW 18:37:01 10° W visible
17 May 10.9 04:10:37 10° SE 04:15:21 23° ENE 04:20:04 10° NNE visible
18 May 9.6 04:40:49 10° SSE 04:46:48 48° ENE 04:52:47 10° N visible
19 May 8.6 05:11:59 10° SSE 05:18:16 83° WSW 05:24:33 10° NNW visible
19 May 11.6 18:22:01 10° NW 18:25:38 16° WNW 18:29:16 10° WSW visible
20 May 11.2 04:02:23 10° ESE 04:06:26 18° ENE 04:10:29 10° NE visible
21 May 10.1 04:32:08 10° SE 04:37:53 38° ENE 04:43:36 10° N visible
22 May 8.7 05:03:04 10° SSE 05:09:20 80° ENE 05:15:37 10° N visible
23 May 11.5 03:54:27 10° ESE 03:57:31 14° ENE 04:00:36 10° NE visible
24 May 10.5 04:23:33 10° SE 04:28:58 31° ENE 04:34:20 10° NNE visible
25 May 9.1 04:54:12 10° SSE 05:00:25 65° ENE 05:06:37 10° N visible
